When you browse on this site, cookies collect data to enhance your experience and personalize the content and advertising you see.
Visit our Privacy Policy to learn more. By continuing to use the site, you agree to this use of cookies and data.
  • In Hungary
  • List of Countries
  • For 7 days
  • Water Temperature
  • Satellite Maps
  • Weather Map
  • News
  • Weather Widgets
  • user-avatar
    Login

    Hourly Weather Prokuplje

    Today, 13 December, Thursday

    Time Temperature Precipitation Wind Pressure Humidity
    00:00 +1°C° 0 mm 1 mps 738 mmHg 73%
    01:00 +1°C° 0 mm 1 mps 737 mmHg 70%
    02:00 +1°C° 0 mm 1 mps 737 mmHg 69%
    03:00 +1°C° 0 mm 1 mps 737 mmHg 69%
    04:00 +1°C° 0 mm 1 mps 737 mmHg 68%
    05:00 +1°C° 0 mm 1 mps 737 mmHg 68%
    06:00 0°C° 0 mm 1 mps 737 mmHg 67%
    07:00 0°C° 0 mm 1 mps 737 mmHg 67%
    08:00 +2°C° 0 mm 1 mps 737 mmHg 61%
    09:00 +3°C° 0 mm 1 mps 737 mmHg 55%
    10:00 +4°C° 0 mm 1 mps 737 mmHg 50%
    11:00 +5°C° 0 mm 1 mps 736 mmHg 48%
    12:00 +5°C° 0 mm 1 mps 736 mmHg 46%
    13:00 +5°C° 0 mm 1 mps 736 mmHg 46%
    14:00 +4°C° 0 mm 1 mps 736 mmHg 50%
    15:00 +4°C° 0 mm 1 mps 736 mmHg 54%
    16:00 +3°C° 0 mm 1 mps 736 mmHg 58%
    17:00 +3°C° 0 mm 1 mps 736 mmHg 58%
    18:00 +2°C° 0 mm 1 mps 736 mmHg 59%
    19:00 +2°C° 0 mm 1 mps 735 mmHg 59%
    20:00 +2°C° 0 mm 1 mps 735 mmHg 60%
    21:00 +2°C° 0 mm 1 mps 735 mmHg 61%
    22:00 +2°C° 0 mm 1 mps 735 mmHg 62%
    23:00 +2°C° 0.2 mm 1 mps 735 mmHg 65%

    Tomorrow, 14 December, Friday

    Time Temperature Precipitation Wind Pressure Humidity
    00:00 +2°C° 0.2 mm 1 mps 735 mmHg 68%
    01:00 +2°C° 0.2 mm 1 mps 735 mmHg 72%
    02:00 +2°C° 0.6 mm 1 mps 735 mmHg 78%
    03:00 +2°C° 0.6 mm 1 mps 735 mmHg 84%
    04:00 +1°C° 0.6 mm 1 mps 735 mmHg 90%
    05:00 +1°C° 0.3 mm 1 mps 735 mmHg 91%
    06:00 +1°C° 0.3 mm 1 mps 735 mmHg 92%
    07:00 +1°C° 0.3 mm 1 mps 735 mmHg 93%
    08:00 +2°C° 0.2 mm 1 mps 735 mmHg 90%
    09:00 +3°C° 0.2 mm 1 mps 735 mmHg 88%
    10:00 +4°C° 0.2 mm 1 mps 735 mmHg 86%
    11:00 +4°C° 0.7 mm 1 mps 735 mmHg 87%
    12:00 +4°C° 0.7 mm 1 mps 735 mmHg 88%
    13:00 +3°C° 0.7 mm 2 mps 735 mmHg 89%
    14:00 +3°C° 0.6 mm 2 mps 735 mmHg 91%
    15:00 +2°C° 0.6 mm 2 mps 734 mmHg 92%
    16:00 +3°C° 0.6 mm 1 mps 734 mmHg 93%
    17:00 +2°C° 0.2 mm 2 mps 735 mmHg 93%
    18:00 +2°C° 0.2 mm 2 mps 735 mmHg 93%
    19:00 +2°C° 0.2 mm 2 mps 735 mmHg 93%
    20:00 +2°C° 0.3 mm 2 mps 735 mmHg 94%
    21:00 +2°C° 0.3 mm 2 mps 734 mmHg 94%
    22:00 +2°C° 0.3 mm 2 mps 734 mmHg 94%
    23:00 +2°C° 0.2 mm 2 mps 734 mmHg 94%

    Day after tomorrow, 15 December, Saturday

    Time Temperature Precipitation Wind Pressure Humidity
    00:00 +2°C° 0.2 mm 2 mps 734 mmHg 94%
    01:00 +3°C° 0.2 mm 1 mps 734 mmHg 94%
    02:00 +3°C° 0.1 mm 1 mps 734 mmHg 95%
    03:00 +3°C° 0.1 mm 1 mps 734 mmHg 95%
    04:00 +3°C° 0.1 mm 1 mps 734 mmHg 95%
    05:00 +3°C° 0.1 mm 1 mps 734 mmHg 95%
    06:00 +3°C° 0.1 mm 1 mps 734 mmHg 95%
    07:00 +3°C° 0.1 mm 1 mps 734 mmHg 95%
    08:00 +4°C° 0.1 mm 1 mps 734 mmHg 94%
    09:00 +4°C° 0.1 mm 1 mps 734 mmHg 94%
    10:00 +5°C° 0.1 mm 1 mps 734 mmHg 94%
    11:00 +5°C° 0.4 mm 1 mps 734 mmHg 94%
    12:00 +5°C° 0.4 mm 1 mps 733 mmHg 94%
    13:00 +5°C° 0.4 mm 1 mps 733 mmHg 94%
    14:00 +5°C° 0.5 mm 1 mps 733 mmHg 95%
    15:00 +4°C° 0.5 mm 1 mps 733 mmHg 95%
    16:00 +4°C° 0.5 mm 1 mps 733 mmHg 96%
    17:00 +4°C° 0.5 mm 1 mps 733 mmHg 96%
    18:00 +4°C° 0.5 mm 1 mps 733 mmHg 96%
    19:00 +3°C° 0.5 mm 1 mps 734 mmHg 96%
    20:00 +3°C° 0.3 mm 1 mps 734 mmHg 96%
    21:00 +3°C° 0.3 mm 1 mps 734 mmHg 96%
    22:00 +3°C° 0.3 mm 1 mps 733 mmHg 96%
    23:00 +2°C° 0.9 mm 2 mps 733 mmHg 96%

    16 December, Sunday

    Time Temperature Precipitation Wind Pressure Humidity
    00:00 +1°C° 0.9 mm 2 mps 733 mmHg 96%
    01:00 +1°C° 0.9 mm 2 mps 733 mmHg 96%
    02:00 +1°C° 0.9 mm 2 mps 733 mmHg 96%
    03:00 +1°C° 0.9 mm 2 mps 733 mmHg 96%
    04:00 +1°C° 0.9 mm 2 mps 733 mmHg 96%
    05:00 +1°C° 0.9 mm 2 mps 733 mmHg 96%
    06:00 +1°C° 0.9 mm 2 mps 734 mmHg 96%
    07:00 -1°C° 0.9 mm 3 mps 734 mmHg 96%
    08:00 -1°C° 0.8 mm 3 mps 734 mmHg 95%
    09:00 -1°C° 0.8 mm 3 mps 735 mmHg 95%
    10:00 -1°C° 0.8 mm 3 mps 735 mmHg 94%
    11:00 0°C° 0.4 mm 3 mps 735 mmHg 94%
    12:00 0°C° 0.4 mm 3 mps 735 mmHg 93%
    13:00 0°C° 0.4 mm 3 mps 735 mmHg 93%
    14:00 +1°C° 0.1 mm 2 mps 736 mmHg 93%
    15:00 -1°C° 0.1 mm 2 mps 736 mmHg 94%
    16:00 -1°C° 0.1 mm 2 mps 736 mmHg 94%
    17:00 +1°C° 0 mm 1 mps 737 mmHg 95%
    18:00 +1°C° 0 mm 1 mps 737 mmHg 95%
    19:00 +1°C° 0 mm 1 mps 737 mmHg 96%
    20:00 +1°C° 0 mm 1 mps 738 mmHg 95%
    21:00 0°C° 0 mm 1 mps 738 mmHg 95%
    22:00 0°C° 0 mm 1 mps 738 mmHg 95%
    23:00 -1°C° 0 mm 0 mps 738 mmHg 95%

    17 December, Monday

    Time Temperature Precipitation Wind Pressure Humidity
    00:00 -1°C° 0 mm 0 mps 737 mmHg 94%
    01:00 -1°C° 0 mm 0 mps 737 mmHg 94%
    02:00 -1°C° 0 mm 0 mps 737 mmHg 94%
    03:00 -1°C° 0 mm 0 mps 737 mmHg 93%
    04:00 -1°C° 0 mm 0 mps 737 mmHg 93%
    05:00 -1°C° 0 mm 0 mps 737 mmHg 93%
    06:00 0°C° 0 mm 0 mps 737 mmHg 93%
    07:00 0°C° 0 mm 0 mps 737 mmHg 92%
    08:00 +1°C° 0 mm 0 mps 737 mmHg 93%
    09:00 +2°C° 0 mm 0 mps 737 mmHg 93%
    10:00 +3°C° 0 mm 0 mps 737 mmHg 94%
    11:00 +3°C° 0.1 mm 0 mps 737 mmHg 94%
    12:00 +3°C° 0.1 mm 0 mps 737 mmHg 94%
    13:00 +3°C° 0.1 mm 0 mps 737 mmHg 95%
    14:00 +4°C° 0 mm 1 mps 737 mmHg 95%
    15:00 +3°C° 0 mm 1 mps 737 mmHg 96%
    16:00 +3°C° 0 mm 1 mps 737 mmHg 96%
    17:00 +2°C° 0 mm 1 mps 738 mmHg 96%
    18:00 +2°C° 0 mm 1 mps 738 mmHg 97%
    19:00 +2°C° 0 mm 1 mps 739 mmHg 97%
    20:00 +1°C° 0.1 mm 1 mps 739 mmHg 96%
    21:00 +1°C° 0.1 mm 1 mps 739 mmHg 96%
    22:00 +1°C° 0.1 mm 1 mps 739 mmHg 96%
    23:00 +1°C° 0 mm 1 mps 740 mmHg 95%

    18 December, Tuesday

    Time Temperature Precipitation Wind Pressure Humidity
    00:00 -2°C° 0 mm 2 mps 740 mmHg 95%
    01:00 -2°C° 0 mm 2 mps 740 mmHg 95%
    02:00 -2°C° 0 mm 2 mps 740 mmHg 95%
    03:00 -2°C° 0 mm 2 mps 740 mmHg 95%
    04:00 -2°C° 0 mm 2 mps 740 mmHg 95%
    05:00 -2°C° 0 mm 2 mps 741 mmHg 95%
    06:00 -3°C° 0 mm 2 mps 741 mmHg 95%
    07:00 -3°C° 0 mm 2 mps 741 mmHg 95%
    08:00 -2°C° 0.1 mm 2 mps 742 mmHg 93%
    09:00 -2°C° 0.1 mm 2 mps 742 mmHg 92%
    10:00 -1°C° 0.1 mm 2 mps 742 mmHg 90%
    11:00 -1°C° 0 mm 2 mps 742 mmHg 90%
    12:00 -1°C° 0 mm 2 mps 742 mmHg 89%
    13:00 +1°C° 0 mm 2 mps 741 mmHg 89%
    14:00 -1°C° 0 mm 2 mps 741 mmHg 90%
    15:00 -1°C° 0 mm 2 mps 742 mmHg 92%
    16:00 -2°C° 0 mm 2 mps 742 mmHg 93%
    17:00 -2°C° 0 mm 2 mps 742 mmHg 93%
    18:00 -2°C° 0 mm 2 mps 743 mmHg 94%
    19:00 -2°C° 0 mm 2 mps 743 mmHg 95%
    20:00 -1°C° 0 mm 1 mps 743 mmHg 95%
    21:00 -1°C° 0 mm 1 mps 743 mmHg 95%
    22:00 -1°C° 0 mm 1 mps 744 mmHg 95%
    23:00 -1°C° 0 mm 1 mps 743 mmHg 95%
    Show more